Location: ????????
(55.0559°N, 39.1270°E)
Time: 07:18:47
(UTC+00:00)

H-2A R/B - Pass Details

Date: 15 November 2025
Orbit: 728 x 830 km, 98.3° (Epoch: 14 December)

Event Time Altitude Azimuth Distance (km) Brightness Sun altitude
Rises 02:52:07 0° 9° (N) 3,205 5.2 -17.3°
Reaches altitude 10° 02:55:08 10° 350° (N) 2,263 4.3 -16.9°
Enters shadow 02:57:14 16° 326° (NW) 1,857 3.6 -16.6°
